This demonstration page uses our WeatherBlox Daily Observations layout. Learn more.

Left ArrowRight Arrow

Hourly Observations for July 19, 2018

Temp ( °F °C ) Dew Point ( °F °C ) Humidity (%) Winds ( mph kmh ) Pressure ( in mb ) Visibility ( mi km ) Precip ( " mm )
12:59 am 00:59 Mostly Clear 68 20 61 16.1 78 78 Calm 30.00 1016 10 16 0.00 0.00
1:59 am 01:59 Partly Cloudy 68 20 62 16.7 81 81 Calm 30.01 1016 10 16 0.00 0.00
2:59 am 02:59 Mostly Clear 69 20.6 62 16.7 78 78 Calm 30.01 1016 10 16 0.00 0.00
3:59 am 03:59 Mostly Clear 67 19.4 62 16.7 84 84 Calm 30.00 1016 10 16 0.00 0.00
4:59 am 04:59 Mostly Clear 71 21.7 62 16.7 73 73 NNW 5 7 30.01 1016 10 16 0.00 0.00
5:59 am 05:59 Mostly Clear 67 19.4 62 16.7 84 84 Calm 30.02 1017 10 16 0.00 0.00
6:59 am 06:59 Mostly Sunny 71 21.7 65 18.3 81 81 Calm 30.03 1017 10 16 0.00 0.00
7:59 am 07:59 Mostly Sunny 78 25.6 68 20 71 71 N 5 7 30.04 1017 10 16 0.00 0.00
8:59 am 08:59 Partly Cloudy 81 27.2 68 20 65 65 VRB 6 9 30.06 1018 10 16 0.00 0.00
9:59 am 09:59 Partly Cloudy 83 28.3 70 21.1 65 65 NE 8 13 30.08 1019 10 16 0.00 0.00
10:59 am 10:59 Partly Cloudy 82 27.8 68 20 63 63 ENE 9 15 30.09 1019 10 16 0.00 0.00
11:59 am 11:59 Partly Cloudy 83 28.3 69 20.6 63 63 ENE 13 20 30.09 1019 10 16 0.00 0.00
12:59 pm 12:59 Partly Cloudy 82 27.8 68 20 63 63 ENE 15 24 30.09 1019 10 16 0.00 0.00
1:59 pm 13:59 Partly Cloudy 83 28.3 67 19.4 59 59 ENE 14 22 30.09 1019 10 16 0.00 0.00
2:59 pm 14:59 Partly Cloudy 84 28.9 66 18.9 55 55 E 13 20 30.08 1019 10 16 0.00 0.00
3:59 pm 15:59 Partly Cloudy 83 28.3 66 18.9 57 57 ENE 14 22 30.07 1018 10 16 0.00 0.00
4:59 pm 16:59 Mostly Sunny 83 28.3 66 18.9 57 57 E 14 22 30.06 1018 10 16 0.00 0.00
5:59 pm 17:59 Partly Cloudy 81 27.2 66 18.9 61 61 E 15 24 30.06 1018 10 16 0.00 0.00
6:59 pm 18:59 Partly Cloudy 80 26.7 65 18.3 60 60 E 10 17 30.06 1018 10 16 0.00 0.00
7:59 pm 19:59 Mostly Cloudy 78 25.6 64 17.8 62 62 E 7 11 30.07 1018 10 16 0.00 0.00
8:59 pm 20:59 Mostly Cloudy 76 24.4 65 18.3 69 69 ESE 6 9 30.08 1019 10 16 0.00 0.00
9:59 pm 21:59 Cloudy 76 24.4 65 18.3 69 69 ESE 6 9 30.10 1019 10 16 0.00 0.00
10:59 pm 22:59 Mostly Cloudy 75 23.9 64 17.8 69 69 ESE 6 9 30.10 1019 10 16 0.00 0.00
11:59 pm 23:59 Partly Cloudy 72 22.2 63 17.2 73 73 ESE 6 9 30.11 1020 10 16 0.00 0.00

Powered by AerisWeather